SCP
2 2 2 2 2 2 2 2 2 1 1 1 1 1 1 1 1 1 1 1 0 0 0 0 0 0 0 0 0 0 0 0 0 0 0 0 1 1
3 2 2 2 2 3 3 2 2 1 1 1 1 1 1 1 1 1 1 1 0 0 0 0 0 0 0 0 0 0 0 0 0 0 0 0 1 1
3 2 2 2 2 3 3 2 2 2 1 1 1 1 1 1 1 1 1 1 1 0 0 0 0 0 0 0 0 0 0 0 0 0 0 0 0 0
2 2 2 2 2 2 2 2 2 2 2 2 1 1 1 1 2 1 1 1 1 0 0 0 0 0 0 0 0 0 0 0 0 0 0 0 0 0
2 2 2 2 2 3 3 2 2 2 2 2 1 1 1 1 2 1 1 1 1 1 0 0 0 0 0 0 0 0 0 0 0 0 0 0 0 0
3 2 2 2 2 2 2 2 2 2 2 1 1 1 1 2 2 1 1 1 1 1 1 0 0 0 0 0 0 0 0 0 0 0 0 0 0 0
5 4 3 2 2 2 2 1 1 1 1 1 1 1 1 2 2 2 1 1 1 1 1 1 1 1 0 0 0 0 0 0 0 0 0 0 0 0
7 6 4 3 2 1 1 1 1 1 1 1 1 1 1 2 2 2 1 1 1 1 1 2 1 1 1 1 0 0 0 0 0 0 0 0 0 0
8 8 6 3 2 1 1 1 1 1 1 1 1 1 1 1 2 2 1 1 1 1 1 1 2 1 1 1 1 0 0 0 0 0 0 0 0 0
8 8 7 4 2 1 1 1 1 1 1 1 1 1 1 1 2 2 2 1 1 1 1 1 1 1 1 1 1 0 0 0 0 0 0 0 0 0
7 7 6 4 2 1 1 1 1 2 2 2 1 1 1 1 1 2 2 1 1 1 1 1 1 1 1 1 1 1 0 0 0 0 0 0 0 0
7 6 5 3 2 1 1 2 2 2 2 2 1 1 1 1 1 1 1 1 1 1 1 1 1 1 1 1 1 1 1 1 0 0 0 0 0 0
7 6 4 2 1 1 1 2 2 2 2 2 2 1 1 1 1 1 1 1 2 2 2 1 1 1 1 1 2 2 2 2 1 1 0 0 0 0
6 4 3 1 1 1 1 1 1 1 2 2 2 2 2 2 2 1 1 2 2 2 2 1 1 1 1 1 1 2 3 3 3 2 1 1 0 0
3 2 1 1 1 0 0 0 1 1 2 2 2 2 3 3 2 2 1 1 1 1 1 1 1 1 1 1 1 2 2 3 3 3 2 2 1 1
2 2 1 1 1 1 1 1 1 1 1 2 3 3 3 3 3 2 2 1 1 1 1 2 2 2 2 2 2 2 2 2 2 3 3 3 2 2
2 2 2 2 1 1 1 1 1 1 1 2 3 3 3 3 3 2 2 1 1 1 1 2 2 2 2 2 3 3 3 2 2 3 3 3 3 3
2 2 2 2 2 2 2 2 2 2 2 2 2 2 2 2 2 2 1 1 1 1 1 1 2 2 2 2 2 2 3 3 3 2 2 2 2 2
1 2 2 2 2 2 2 2 2 2 2 2 2 2 2 1 1 1 1 1 1 1 1 1 1 1 1 1 1 1 2 3 2 2 1 1 2 2
1 1 2 2 2 2 2 1 2 2 2 2 2 1 1 1 1 1 1 1 1 1 1 1 1 1 1 1 1 1 1 1 1 1 1 1 1 1
1 1 2 2 2 2 2 2 2 2 2 2 1 1 1 1 1 1 1 1 1 1 1 1 1 1 1 1 1 1 1 1 1 1 1 1 1 1
1 1 1 2 2 2 2 2 2 2 2 2 1 1 1 1 1 1 1 1 1 1 1 1 1 1 1 1 1 1 1 1 0 0 0 0 1 1
1 1 1 1 1 2 2 2 1 1 2 1 1 1 1 1 1 1 1 1 1 1 1 1 1 1 1 1 1 1 1 1 0 0 0 0 0 0
Wind_Speed
1 1 1 0 1 1 1 1 2 1 1 1 1 1 1 2 3 1 2 6 5 4 4 4 4 4 4 4 3 3 3 3 2 1 1 1 2 4
1 0 1 1 0 0 1 1 1 1 0 1 1 2 2 2 4 2 3 8 7 6 6 6 5 5 5 5 5 5 5 5 5 4 3 2 1 1
1 1 0 1 1 0 0 0 0 0 1 1 2 3 2 2 2 1 2 3 5 8 7 7 7 7 7 6 6 6 5 5 5 5 4 5 4 3
1 1 0 1 0 0 0 0 1 1 1 1 2 2 2 2 2 1 2 2 4 9 8 8 7 7 7 7 7 7 7 6 6 5 5 6 6 5
2 1 1 1 1 1 0 1 1 1 1 2 2 2 1 1 1 2 3 2 2 6 7 8 7 7 8 8 8 7 7 6 6 6 6 6 6 6
3 3 3 2 1 1 1 1 0 1 2 2 2 2 2 1 1 1 2 2 1 2 4 4 6 7 7 8 8 8 7 6 6 6 6 6 7 7
3 3 4 5 7 5 3 2 1 0 1 1 2 1 1 0 0 1 1 1 2 1 1 2 3 3 4 6 7 7 7 6 6 7 7 6 6 6
3 3 4 4 5 6 7 7 5 2 1 0 1 1 1 1 1 1 1 1 1 1 0 1 2 2 2 4 6 6 5 6 6 6 6 5 5 5
2 2 2 3 2 3 4 4 5 5 3 2 1 1 1 1 2 2 0 0 0 1 1 1 1 2 2 5 7 5 4 4 4 4 4 4 3 3
2 2 2 3 3 2 2 3 3 4 3 2 2 1 2 2 2 1 1 2 2 2 0 0 1 1 2 3 7 5 4 3 3 3 2 2 1 1
3 3 3 3 5 3 2 3 3 3 4 4 4 3 3 3 3 1 1 2 1 2 1 1 1 1 1 2 5 7 5 5 5 4 3 2 1 3
3 4 5 4 4 4 1 2 2 2 2 3 3 2 2 2 1 2 2 1 0 1 1 1 1 1 1 1 1 2 4 6 6 5 4 3 2 3
2 3 4 5 4 3 2 2 1 1 1 1 2 2 1 1 1 1 2 3 2 1 1 2 1 2 1 1 1 0 0 1 2 4 5 5 3 3
2 3 4 4 4 3 2 3 2 2 0 1 1 1 1 1 1 1 2 2 2 2 1 1 2 2 2 1 1 1 1 1 1 1 1 5 5 5
3 6 6 4 4 3 3 1 1 0 1 1 1 1 1 1 0 1 1 1 0 1 2 1 2 1 3 2 1 1 1 1 1 1 1 1 1 2
3 6 5 4 2 2 2 1 0 1 1 1 1 1 1 1 0 1 1 0 0 1 2 1 1 2 3 3 2 1 1 2 2 2 2 2 2 2
2 3 2 2 2 1 1 1 1 0 0 0 1 1 1 1 1 1 1 1 1 0 1 0 1 1 2 3 2 2 2 2 2 2 3 4 3 2
2 2 1 1 1 1 1 1 0 1 1 1 1 1 1 1 1 1 1 1 1 1 1 0 1 1 2 1 1 3 3 3 2 2 4 4 4 3
2 1 1 0 0 0 1 1 1 1 1 1 1 1 1 2 2 2 2 2 2 2 1 1 2 2 3 2 0 2 4 3 3 3 3 4 5 4
1 0 0 0 0 0 0 0 0 0 0 1 1 2 2 2 2 2 2 3 3 3 3 2 2 3 4 4 4 2 3 3 4 5 5 5 4 2
1 0 0 0 0 0 1 1 1 1 1 2 1 2 2 2 2 3 2 2 3 3 4 3 2 3 4 4 4 3 1 3 3 4 6 6 5 5
0 0 0 0 0 0 0 1 1 1 1 1 1 1 2 2 2 3 3 3 3 4 4 3 2 3 4 5 5 4 4 3 3 6 5 5 5 6
0 0 0 1 0 0 0 1 1 1 1 1 1 2 2 2 3 3 3 3 3 4 4 4 3 4 4 5 5 4 5 5 4 3 3 6 9 9
Wind_Direction
233 213 246 265 251 266 258 245 241 217 151 133 124 86 68 85 86 106 85 86 80 71 62 52 50 49 46 38 32 28 20 14 18 24 336 270 237 227
237 269 292 298 302 249 246 251 272 259 204 106 97 84 58 73 90 73 82 100 84 78 70 64 60 58 58 51 47 45 47 49 46 47 53 62 79 107
205 170 154 336 319 277 215 185 238 215 164 125 114 97 87 65 77 74 94 101 94 86 79 73 68 65 65 61 57 54 50 50 51 52 56 66 77 80
133 130 144 143 158 312 164 99 99 114 179 142 111 105 93 93 96 107 92 95 96 97 94 84 77 70 68 66 61 56 52 52 55 58 62 67 70 68
67 73 68 63 67 80 101 98 114 133 139 151 136 117 87 83 118 97 90 73 93 116 118 104 92 85 79 74 67 61 56 56 61 64 65 67 69 67
71 67 59 54 45 69 110 104 124 162 154 164 129 125 108 92 172 136 117 98 68 81 87 101 113 113 98 89 77 68 64 63 65 68 70 71 70 71
94 83 69 56 42 31 27 41 54 222 156 149 130 130 116 154 245 211 127 129 105 62 95 110 123 111 109 105 85 72 72 73 73 73 74 76 76 75
94 89 94 82 78 71 58 49 33 13 16 332 120 132 155 199 268 245 189 193 130 82 260 104 95 89 89 85 86 89 85 82 79 78 78 79 78 76
86 81 76 80 95 102 105 106 69 44 16 333 28 342 314 309 261 239 216 273 69 124 217 129 103 92 94 93 108 111 108 104 97 90 85 84 85 86
77 80 81 74 45 39 109 93 78 55 26 25 47 18 24 349 290 250 204 182 165 120 238 220 122 102 96 111 129 134 138 140 135 122 108 100 111 125
79 67 61 77 33 1 96 99 88 88 84 69 58 57 50 22 340 272 201 200 153 130 148 264 181 154 137 135 138 157 165 167 168 169 174 198 245 228
108 94 65 52 41 9 81 106 103 84 87 104 101 99 87 78 12 336 316 287 198 120 96 263 215 230 215 142 127 164 172 174 183 185 186 196 259 268
117 111 92 81 72 40 20 64 40 315 115 101 108 99 91 75 48 25 343 324 319 353 95 254 265 259 255 241 212 258 251 169 180 177 184 191 216 264
99 96 98 108 106 85 62 44 350 294 133 109 92 71 54 52 47 30 10 2 356 353 346 288 289 290 279 261 256 263 274 273 261 258 210 178 203 214
90 86 99 120 136 121 103 59 270 270 51 75 69 50 40 38 48 143 137 151 117 29 53 317 287 279 283 289 300 298 289 301 316 308 295 265 250 222
141 128 137 146 155 90 125 171 192 20 358 40 41 49 46 60 24 8 347 339 69 83 98 133 266 288 285 296 287 286 301 296 297 310 300 276 259 252
153 151 154 151 148 129 110 82 61 121 139 13 18 17 10 8 5 357 319 294 292 349 86 99 229 248 290 298 295 303 300 293 296 306 281 280 277 267
192 163 164 164 143 125 133 120 85 19 2 344 336 326 336 334 337 335 308 294 299 301 293 275 260 249 242 182 318 291 291 297 299 281 280 286 285 283
192 171 153 147 152 129 87 67 60 49 344 319 314 316 319 321 329 330 329 313 303 302 303 300 293 290 290 296 247 272 296 305 299 290 283 286 287 291
201 165 179 172 100 95 88 45 26 46 340 299 295 299 304 306 312 313 313 315 307 306 307 309 310 308 304 311 312 291 224 280 303 303 303 296 293 292
184 173 158 58 56 61 47 2 340 330 325 295 298 300 297 292 301 304 308 321 296 301 306 310 342 297 284 288 288 295 297 194 248 286 297 294 296 290
163 150 132 99 74 57 110 277 277 295 298 285 304 300 298 295 293 294 301 300 300 306 307 309 305 284 287 291 295 303 304 293 231 222 248 268 294 299
193 178 168 151 134 152 250 259 270 292 301 307 311 303 298 293 295 296 297 300 304 304 300 298 298 290 290 290 293 297 298 294 289 273 246 210 217 236